Location: Wingville
(42.9917°N, 90.4915°W)
Time: 22:15:03
(UTC+00:00)

CUBESAT XI-V - Pass Details

Date: 04 July 2022
Orbit: 668 x 690 km, 98.1° (Epoch: 15 August)

Event Time Altitude Azimuth Distance (km) Brightness Sun altitude
Exits shadow 06:24:03 - 102° (ESE) 2,229 ? -24.0°
Reaches altitude 10° 06:24:33 10° 97° (E) 2,104 ? -24.0°
Maximum altitude 06:27:10 15° 62° (ENE) 1,776 ? -24.0°
Drops below altitude 10° 06:29:47 10° 27° (NNE) 2,106 ? -23.9°
Sets 06:32:51 0° 5° (N) 3,023 ? -23.9°
